Weather History for Springfield, CO

Change the Weather History Date:

Sunday, September 15, 2013

  Actual Average Record
Temperature  
Mean Temperature 65 °F -  
Max Temperature 73 °F 81 °F 95 °F (2007)
Min Temperature 57 °F 52 °F 39 °F (2012)
Degree Days  
Heating Degree Days 0 2  
Month to date heating degree days 0 20  
Since 1 July heating degree days 1 27  
Cooling Degree Days 0 4  
Month to date cooling degree days 153 80  
Year to date cooling degree days 1317 981  
Growing Degree Days 15 (Base 50)    
Moisture  
Dew Point 58 °F    
Average Humidity 82    
Maximum Humidity 100    
Minimum Humidity 64    
Precipitation  
Precipitation 0.49 in 0.04 in 1.77 in (1999)
Month to date precipitation 3.13 0.76  
Year to date precipitation 12.87 14.50  
Sea Level Pressure  
Sea Level Pressure 29.98 in    
Wind  
Wind Speed 12 mph (North)    
Max Wind Speed 21 mph    
Max Gust Speed 26 mph    
T = Trace of Precipitation, MM = Missing Value Source: NWS Daily Summary

Daily Weather History Graph

Daily Weather History Graph

Search for Another Location

Airport:

Trip Planner

Search our weather history database for the weather conditions in past years. The results will help you decide how hot, cold, wet, or windy it might be!

Date:

Astronomy

Sep. 15, 2013 Rise Set
Actual Time 6:32 AM MDT 6:57 PM MDT
Civil Twilight 6:06 AM MDT 7:23 PM MDT
Nautical Twilight 5:35 AM MDT 7:54 PM MDT
Astronomical Twilight 5:04 AM MDT 8:25 PM MDT
Moon 4:23 PM MDT (9/15) 2:17 AM MDT (9/15)
Length of Visible Light 13h 17m
Length of Day
12h 24m
Waxing Gibbous, 82% of the Moon is Illuminated
Sep 15
Waxing Gibbous
Sep 19
Full
Sep 26
Last Quarter
Oct 4
New
Oct 11
First Quarter

Hourly Weather History & Observations

Time (MDT) Temp. Dew Point Humidity Pressure Visibility Wind Dir Wind Speed Gust Speed Precip Events Conditions
12:56 AM 64.9 °F 55.9 °F 73% 29.81 in - SSW 11.5 mph - N/A   Unknown
1:56 AM 64.0 °F 55.9 °F 75% 29.82 in - SW 8.1 mph - N/A   Unknown
2:56 AM 62.1 °F 55.9 °F 80% 29.82 in - South 6.9 mph - N/A   Unknown
3:56 AM 61.0 °F 55.9 °F 83% 29.84 in - WSW 8.1 mph - N/A   Unknown
4:56 AM 60.1 °F 55.0 °F 83% 29.86 in - SW 5.8 mph - N/A   Unknown
5:56 AM 61.0 °F 55.9 °F 83% 29.88 in - WNW 11.5 mph - N/A   Unknown
6:56 AM 60.1 °F 57.0 °F 90% 29.92 in - West 6.9 mph - N/A   Unknown
7:56 AM 63.0 °F 57.9 °F 84% 29.94 in - NW 15.0 mph 19.6 mph N/A   Unknown
8:56 AM 66.9 °F 57.9 °F 73% 29.95 in - NNW 15.0 mph - N/A   Unknown
9:56 AM 69.1 °F 59.0 °F 70% 29.97 in - North 18.4 mph 26.5 mph N/A   Unknown
10:56 AM 69.1 °F 59.0 °F 70% 29.99 in - NNW 15.0 mph 23.0 mph N/A   Unknown
11:56 AM 69.1 °F 59.0 °F 70% 30.01 in - North 15.0 mph - N/A   Unknown
12:56 PM 69.1 °F 59.0 °F 70% 30.01 in - North 11.5 mph - N/A   Unknown
1:56 PM 69.1 °F 59.0 °F 70% 30.01 in - North 10.4 mph - N/A   Unknown
2:56 PM 73.0 °F 60.1 °F 64% 30.00 in - North 12.7 mph - N/A   Unknown
3:56 PM 70.0 °F 60.1 °F 71% 30.00 in - ENE 10.4 mph - N/A   Unknown
4:56 PM 69.1 °F 60.1 °F 73% 30.02 in - NE 13.8 mph - N/A   Unknown
5:56 PM 64.9 °F 61.0 °F 87% 30.04 in - NE 16.1 mph - N/A   Unknown
6:56 PM 62.1 °F 60.1 °F 93% 30.07 in - NE 15.0 mph - N/A   Unknown
7:56 PM 60.1 °F 60.1 °F 100% 30.08 in - NE 12.7 mph - N/A   Unknown
8:56 PM 57.9 °F 57.0 °F 97% 30.12 in - NE 13.8 mph - 0.03 in   Unknown
9:56 PM 57.0 °F 57.0 °F 100% 30.12 in - NNE 15.0 mph - 0.09 in   Unknown
10:56 PM 57.0 °F 55.9 °F 96% 30.14 in - ENE 6.9 mph - 0.09 in   Unknown
11:56 PM 57.0 °F 55.9 °F 96% 30.13 in - NNE 4.6 mph - 0.23 in   Unknown